Sierra Vista, AZ

12:31 AM MST on April 26, 2017 (GMT -0700)
Sierra Vista Municipal-Libby Army Air Field

Weather History for KFHU - March, 2014

Change the Weather History Date:

Wednesday, March 5, 2014

  Actual Average Record
Temperature  
Mean Temperature 56 °F -  
Max Temperature 69 °F 64 °F 78 °F (2012)
Min Temperature 44 °F 41 °F 23 °F (1985)
Degree Days  
Heating Degree Days 8    
Growing Degree Days 6 (Base 50)    
Moisture  
Dew Point 29 °F    
Average Humidity 40    
Maximum Humidity 76    
Minimum Humidity 11    
Precipitation  
Precipitation 0.00 in - - ()
Sea Level Pressure  
Sea Level Pressure 30.00 in    
Wind  
Wind Speed 5 mph (East)    
Max Wind Speed 12 mph    
Max Gust Speed -    
Visibility 10 miles    
Events      
Averages and records for this station are not official NWS values.
T = Trace of Precipitation, MM = Missing Value Source: NWS Daily Summary

Daily Weather History Graph

Daily Weather History Graph

Search for Another Location

Airport or City:

Trip Planner

Search our weather history database for the weather conditions in past years. The results will help you decide how hot, cold, wet, or windy it might be!

Date:

Astronomy

Mar. 05, 2014 Rise Set
Actual Time 6:43 AM MST 6:22 PM MST
Civil Twilight 6:19 AM MST 6:46 PM MST
Nautical Twilight 5:51 AM MST 7:15 PM MST
Astronomical Twilight 5:22 AM MST 7:43 PM MST
Moon 9:30 AM MST (3/5) 11:14 PM MST (3/5)
Length of Visible Light 12h 27m
Length of Day
11h 38m
Waxing Crescent, 24% of the Moon is Illuminated
Mar 5
Waxing Crescent
Mar 8
First Quarter
Mar 16
Full
Mar 23
Last Quarter
Mar 30
New

Hourly Weather History & Observations

Time (MST) Temp. Windchill Dew Point Humidity Pressure Visibility Wind Dir Wind Speed Gust Speed Precip Events Conditions
12:55 AM 50.0 °F - 37.4 °F 62% 29.95 in 10.0 mi WSW 11.5 mph - N/A   Clear
1:55 AM 48.2 °F - 37.4 °F 66% 29.95 in 10.0 mi West 5.8 mph - N/A   Clear
2:55 AM 46.4 °F 42.9 °F 35.6 °F 66% 29.95 in 10.0 mi SW 6.9 mph - N/A   Partly Cloudy
3:55 AM 46.4 °F - 33.8 °F 62% 29.95 in 10.0 mi Calm Calm - N/A   Partly Cloudy
4:55 AM 48.2 °F - 35.6 °F 62% 29.96 in 10.0 mi Calm Calm - N/A   Partly Cloudy
5:55 AM 44.6 °F 40.7 °F 35.6 °F 71% 29.98 in 10.0 mi South 6.9 mph - N/A   Scattered Clouds
6:55 AM 44.6 °F 41.4 °F 37.4 °F 76% 30.01 in 10.0 mi South 5.8 mph - N/A   Partly Cloudy
7:55 AM 51.8 °F - 37.4 °F 58% 30.02 in 10.0 mi Calm Calm - N/A   Partly Cloudy
8:55 AM 55.4 °F - 37.4 °F 51% 30.03 in 10.0 mi NNE 5.8 mph - N/A   Partly Cloudy
9:55 AM 57.2 °F - 35.6 °F 44% 30.04 in 10.0 mi East 4.6 mph - N/A   Partly Cloudy
10:55 AM 60.8 °F - 30.2 °F 31% 30.04 in 10.0 mi ENE 5.8 mph - N/A   Scattered Clouds
11:55 AM 64.4 °F - 24.8 °F 22% 30.04 in 10.0 mi Calm Calm - N/A   Mostly Cloudy
12:55 PM 66.2 °F - 24.8 °F 21% 30.01 in 10.0 mi NE 5.8 mph - N/A   Mostly Cloudy
1:55 PM 68.0 °F - 17.6 °F 15% 29.99 in 10.0 mi East 8.1 mph - N/A   Mostly Cloudy
2:55 PM 69.8 °F - 17.6 °F 14% 29.98 in 10.0 mi NNE 8.1 mph - N/A   Mostly Cloudy
3:55 PM 69.8 °F - 17.6 °F 14% 29.98 in 10.0 mi ENE 5.8 mph - N/A   Mostly Cloudy
4:55 PM 69.8 °F - 12.2 °F 11% 29.98 in 10.0 mi Variable 4.6 mph - N/A   Mostly Cloudy
5:55 PM 68.0 °F - 17.6 °F 15% 29.99 in 10.0 mi ENE 4.6 mph - N/A   Mostly Cloudy
6:55 PM 64.4 °F - 21.2 °F 19% 30.01 in 10.0 mi NE 4.6 mph - N/A   Partly Cloudy
7:55 PM 57.2 °F - 30.2 °F 36% 30.04 in 10.0 mi Calm Calm - N/A   Partly Cloudy
8:55 PM 55.4 °F - 28.4 °F 36% 30.04 in 10.0 mi West 3.5 mph - N/A   Partly Cloudy
9:55 PM 55.4 °F - 28.4 °F 36% 30.05 in 10.0 mi SSW 4.6 mph - N/A   Partly Cloudy
10:55 PM 53.6 °F - 26.6 °F 35% 30.06 in 10.0 mi Calm Calm - N/A   Partly Cloudy
11:55 PM 53.6 °F - 28.4 °F 38% 30.05 in 10.0 mi Calm Calm - N/A   Clear